CW1035 Weather Reports


Display with metric or nautical units.
time (UTC)temp
F
wind
direction
speed
MPH
gust
MPH
rain 1hr
in
rain 24hr
in
rain mn
in
humidity
%
barometer
mb
20260503020640 70 283 6.0 7.0 0.00 0.00 0.00 47 1014.5
20260503020140 70 257 5.0 8.0 0.00 0.00 0.00 47 1014.6
20260503015640 70 262 2.0 8.0 0.00 0.00 0.00 47 1014.6
20260503015140 70 315 0.0 7.0 0.00 0.00 0.00 48 1014.6
20260503014640 70 285 1.0 9.0 0.00 0.00 0.00 48 1014.6
20260503014140 70 303 5.0 9.0 0.00 0.00 0.00 49 1014.6
20260503013640 70 246 3.0 11.0 0.00 0.00 0.00 49 1014.6
20260503013139 70 268 6.0 11.0 0.00 0.00 0.00 49 1014.7
20260503012640 70 300 7.0 9.0 0.00 0.00 0.00 48 1014.7
20260503012139 70 306 4.0 8.0 0.00 0.00 0.00 48 1014.8
20260503011639 70 257 3.0 10.0 0.00 0.00 0.00 48 1014.8
20260503011139 70 274 3.0 10.0 0.00 0.00 0.00 49 1014.9
20260503010639 70 263 3.0 10.0 0.00 0.00 0.00 48 1014.9
20260503010139 70 264 0.0 10.0 0.00 0.00 0.00 49 1014.9
20260503005640 70 330 6.0 8.0 0.00 0.00 0.00 49 1015.0
20260503005139 70 272 6.0 8.0 0.00 0.00 0.00 49 1014.9
20260503004639 70 266 3.0 8.0 0.00 0.00 0.00 49 1014.9
20260503004139 70 345 1.0 11.0 0.00 0.00 0.00 50 1015.1
20260503003639 70 261 6.0 11.0 0.00 0.00 0.00 50 1015.0
20260503002639 70 300 4.0 12.0 0.00 0.00 0.00 51 1015.0
20260503002138 70 266 5.0 12.0 0.00 0.00 0.00 51 1015.1
20260503001639 70 264 3.0 10.0 0.00 0.00 0.00 51 1015.0
20260503001138 69 311 2.0 10.0 0.00 0.00 0.00 52 1015.1
20260503000639 70 281 3.0 9.0 0.00 0.00 0.00 51 1015.1
20260503000138 70 328 8.0 10.0 0.00 0.00 0.00 51 1015.2
20260502235638 70 295 2.0 11.0 0.00 0.00 0.00 52 1015.2
20260502235138 69 290 3.0 11.0 0.00 0.00 0.00 53 1015.3
20260502234638 69 287 4.0 12.0 0.00 0.00 0.00 52 1015.3
20260502234138 69 263 4.0 12.0 0.00 0.00 0.00 52 1015.4
20260502233138 69 286 5.0 11.0 0.00 0.00 0.00 53 1015.4
20260502232638 69 301 4.0 11.0 0.00 0.00 0.00 54 1015.6
20260502232138 69 309 6.0 12.0 0.00 0.00 0.00 55 1015.7
20260502231638 68 304 9.0 12.0 0.00 0.00 0.00 55 1015.7
20260502230637 68 294 4.0 10.0 0.00 0.00 0.00 55 1015.9
20260502230207 68 307 8.0 10.0 0.00 0.00 0.00 54 1016.0
20260502225137 68 335 4.0 9.0 0.00 0.00 0.00 53 1016.1
20260502224637 68 338 2.0 9.0 0.00 0.00 0.00 53 1016.2
20260502224137 67 266 1.0 10.0 0.00 0.00 0.00 54 1016.3
20260502223637 67 12 8.0 10.0 0.00 0.00 0.00 55 1016.4
20260502222637 67 44 6.0 11.0 0.00 0.00 0.00 59 1016.5
20260502222136 66 278 5.0 10.0 0.00 0.00 0.00 61 1016.6
20260502221637 66 292 4.0 9.0 0.00 0.00 0.00 61 1016.7
20260502221136 65 322 2.0 11.0 0.00 0.00 0.00 63 1016.7
20260502220636 66 273 7.0 11.0 0.00 0.00 0.00 61 1016.8
20260502220206 66 266 5.0 12.0 0.00 0.00 0.00 62 1016.9
20260502215636 66 279 8.0 12.0 0.00 0.00 0.00 62 1016.9
20260502215136 65 311 8.0 12.0 0.00 0.00 0.00 64 1017.0
20260502214636 65 298 9.0 10.0 0.00 0.00 0.00 65 1017.0
20260502214136 65 262 0.0 12.0 0.00 0.00 0.00 65 1017.0
20260502213636 65 312 9.0 12.0 0.00 0.00 0.00 66 1017.1
20260502213136 65 330 4.0 11.0 0.00 0.00 0.00 65 1017.2
20260502212135 64 261 4.0 12.0 0.00 0.00 0.00 67 1017.2
20260502211635 65 305 5.0 12.0 0.00 0.00 0.00 67 1017.2
20260502211135 65 282 6.0 11.0 0.00 0.00 0.00 67 1017.3
20260502210635 65 299 4.0 11.0 0.00 0.00 0.00 66 1017.2
20260502210205 64 283 2.0 11.0 0.00 0.00 0.00 67 1017.2
20260502205635 64 257 7.0 11.0 0.00 0.00 0.00 67 1017.2
20260502205205 64 338 4.0 11.0 0.00 0.00 0.00 67 1017.3
20260502204705 64 342 3.0 9.0 0.00 0.00 0.00 66 1017.3
20260502204205 64 330 6.0 12.0 0.00 0.00 0.00 67 1017.3
20260502203635 64 296 4.0 12.0 0.00 0.00 0.00 68 1017.4
20260502203204 64 300 6.0 10.0 0.00 0.00 0.00 68 1017.5
20260502202704 64 27 6.0 9.0 0.00 0.00 0.00 68 1017.5
20260502201704 63 309 6.0 11.0 0.00 0.00 0.00 67 1017.5
20260502201204 63 248 2.0 10.0 0.00 0.00 0.00 71 1017.6
20260502200704 62 326 3.0 9.0 0.00 0.00 0.00 69 1017.8
20260502200204 62 282 3.0 11.0 0.00 0.00 0.00 71 1017.9
20260502195704 62 264 4.0 11.0 0.00 0.00 0.00 71 1017.9
20260502194633 61 322 7.0 10.0 0.00 0.00 0.00 71 1018.0
20260502193704 62 33 6.0 11.0 0.00 0.00 0.00 70 1018.1
20260502193133 63 306 4.0 10.0 0.00 0.00 0.00 70 1018.1
20260502192704 62 346 6.0 8.0 0.00 0.00 0.00 71 1018.2
20260502192204 62 263 1.0 11.0 0.00 0.00 0.00 71 1018.3
20260502191633 62 52 2.0 11.0 0.00 0.00 0.00 72 1018.2
20260502191203 62 28 4.0 9.0 0.00 0.00 0.00 72 1018.3
20260502190703 62 290 3.0 8.0 0.00 0.00 0.00 72 1018.3
20260502190203 61 329 5.0 10.0 0.00 0.00 0.00 72 1018.4
20260502185703 61 57 2.0 10.0 0.00 0.00 0.00 74 1018.4
20260502185203 60 34 2.0 8.0 0.00 0.00 0.00 74 1018.4
20260502184203 60 345 3.0 10.0 0.00 0.00 0.00 75 1018.5
20260502183703 60 293 4.0 13.0 0.00 0.00 0.00 75 1018.5
20260502183203 60 256 9.0 13.0 0.00 0.00 0.00 76 1018.5
20260502182702 60 48 1.0 12.0 0.00 0.00 0.00 76 1018.5
20260502181702 60 328 9.0 11.0 0.00 0.00 0.00 76 1018.6
20260502181132 60 265 4.0 15.0 0.00 0.00 0.00 75 1018.6
20260502180702 60 307 9.0 15.0 0.00 0.00 0.00 76 1018.6
20260502180202 59 290 3.0 12.0 0.00 0.00 0.00 77 1018.6
20260502170201 58 295 8.0 11.0 0.00 0.00 0.00 79 1018.9
20260502163200 53 287 3.0 9.0 0.00 0.00 0.00 89 1018.8
20260502162700 53 283 4.0 9.0 0.00 0.00 0.00 89 1018.8
20260502162200 52 267 6.0 9.0 0.00 0.00 0.00 90 1018.7
20260502161700 52 271 4.0 9.0 0.00 0.00 0.00 90 1018.7
20260502161200 52 295 4.0 10.0 0.00 0.00 0.00 91 1018.7
20260502160659 52 261 2.0 10.0 0.00 0.00 0.00 91 1018.6
20260502160200 51 307 7.0 9.0 0.00 0.00 0.00 92 1018.7
20260502152159 50 284 2.0 7.0 0.00 0.00 0.00 97 1018.6
20260502151159 49 274 4.0 6.0 0.00 0.00 0.00 97 1018.5
20260502150659 49 279 3.0 6.0 0.00 0.00 0.00 97 1018.6
20260502150159 49 295 3.0 5.0 0.00 0.00 0.00 97 1018.6
20260502130657 47 132 0.0 1.0 0.00 0.00 0.00 97 1018.2
20260502130157 47 132 0.0 3.0 0.00 0.00 0.00 97 1018.3
20260502123656 47 158 1.0 2.0 0.00 0.00 0.00 96 1018.2
20260502123156 47 212 0.0 2.0 0.00 0.00 0.00 96 1018.2
20260502122656 47 265 0.0 1.0 0.00 0.00 0.00 96 1018.2
20260502122156 47 265 0.0 0.0 0.00 0.00 0.00 97 1018.2
20260502121656 47 265 0.0 1.0 0.00 0.00 0.00 97 1018.1
20260502121156 47 265 0.0 1.0 0.00 0.00 0.00 97 1018.1
20260502120656 47 269 0.0 1.0 0.00 0.00 0.00 97 1018.2
20260502120155 47 269 0.0 1.0 0.00 0.00 0.00 96 1018.2
20260502115655 47 269 0.0 1.0 0.00 0.00 0.00 96 1018.1
20260502115156 47 269 0.0 2.0 0.00 0.00 0.00 96 1018.0
20260502114655 47 269 1.0 4.0 0.00 0.00 0.00 96 1018.0
20260502114155 47 276 2.0 4.0 0.00 0.00 0.00 96 1017.9
20260502113656 47 302 2.0 4.0 0.00 0.00 0.00 96 1017.8
20260502113155 47 268 1.0 3.0 0.00 0.00 0.00 96 1017.9
20260502112655 47 292 1.0 3.0 0.00 0.00 0.00 95 1017.6
20260502112155 47 292 1.0 3.0 0.00 0.00 0.00 95 1017.5
20260502111655 47 291 1.0 2.0 0.00 0.00 0.00 95 1017.6
20260502111155 47 291 0.0 3.0 0.00 0.00 0.00 95 1017.7
20260502110655 47 291 1.0 3.0 0.00 0.00 0.00 95 1017.6
20260502110155 47 291 2.0 3.0 0.00 0.00 0.00 95 1017.7
20260502105654 47 291 0.0 0.0 0.00 0.00 0.00 95 1017.8
20260502105155 48 291 0.0 0.0 0.00 0.00 0.00 95 1017.8
20260502104655 48 291 0.0 0.0 0.00 0.00 0.00 95 1017.8
20260502104154 48 291 0.0 0.0 0.00 0.00 0.00 95 1017.9
20260502103154 48 291 0.0 4.0 0.00 0.00 0.00 94 1017.8
20260502102654 48 297 3.0 4.0 0.00 0.00 0.00 94 1017.9
20260502102154 48 271 2.0 4.0 0.00 0.00 0.00 94 1017.9
20260502101154 48 285 4.0 4.0 0.00 0.00 0.00 93 1017.9
20260502100654 49 274 3.0 3.0 0.00 0.00 0.00 93 1017.8
20260502100154 49 274 0.0 2.0 0.00 0.00 0.00 92 1017.8
20260502091153 49 244 0.0 0.0 0.00 0.00 0.00 92 1017.6
20260502090653 49 244 0.0 0.0 0.00 0.00 0.00 92 1017.5
20260502090153 49 244 0.0 0.0 0.00 0.00 0.00 92 1017.5
20260502071151 51 279 4.0 10.0 0.00 0.00 0.00 89 1017.2
20260502070651 51 299 6.0 10.0 0.00 0.00 0.00 89 1017.1
20260502070151 51 258 7.0 10.0 0.00 0.00 0.00 88 1017.2
20260502065651 51 259 8.0 11.0 0.00 0.00 0.00 88 1017.1
20260502065151 51 243 5.0 11.0 0.00 0.00 0.00 88 1017.2
20260502064651 51 282 7.0 9.0 0.00 0.00 0.00 88 1017.1
20260502064151 52 269 1.0 11.0 0.00 0.00 0.00 88 1017.0
20260502063651 52 273 4.0 11.0 0.00 0.00 0.00 87 1017.0
20260502063151 52 288 6.0 10.0 0.00 0.00 0.00 87 1016.9
20260502062651 52 253 4.0 10.0 0.00 0.00 0.00 86 1016.9
20260502062150 52 276 5.0 9.0 0.00 0.00 0.00 85 1016.9
20260502061650 52 290 6.0 11.0 0.00 0.00 0.00 85 1016.9
20260502061150 52 277 3.0 11.0 0.00 0.00 0.00 85 1016.7
20260502060650 52 283 3.0 9.0 0.00 0.00 0.00 85 1016.9
20260502055650 52 274 5.0 12.0 0.00 0.00 0.00 85 1016.6
20260502055150 52 290 5.0 13.0 0.00 0.00 0.00 85 1016.6
20260502054650 52 261 2.0 13.0 0.00 0.00 0.00 85 1016.6
20260502054149 53 279 5.0 15.0 0.00 0.00 0.00 84 1016.7
20260502053649 53 257 7.0 15.0 0.00 0.00 0.00 84 1016.7
20260502052650 53 293 12.0 18.0 0.00 0.00 0.00 84 1016.5
20260502052149 53 284 6.0 18.0 0.00 0.00 0.00 84 1016.6
20260502051650 53 282 4.0 16.0 0.00 0.00 0.00 83 1016.6
20260502051149 53 325 5.0 16.0 0.00 0.00 0.00 83 1016.7
20260502050649 53 316 9.0 17.0 0.00 0.00 0.00 82 1016.6
20260502050149 53 291 11.0 17.0 0.00 0.00 0.00 82 1016.6
20260502045649 53 271 6.0 16.0 0.00 0.00 0.00 82 1016.6
20260502045149 53 253 8.0 16.0 0.00 0.00 0.00 81 1016.4
20260502044649 54 288 6.0 16.0 0.00 0.00 0.00 81 1016.7
20260502044149 54 335 10.0 17.0 0.00 0.00 0.00 80 1016.5
20260502043649 54 345 12.0 17.0 0.00 0.00 0.00 80 1016.4
20260502043149 54 297 6.0 15.0 0.00 0.00 0.00 80 1016.3
20260502042149 54 229 7.0 14.0 0.00 0.00 0.00 79 1016.3
20260502041648 54 239 5.0 16.0 0.00 0.00 0.00 79 1016.3
20260502041149 54 300 9.0 16.0 0.00 0.00 0.00 79 1016.2
20260502040648 54 286 4.0 14.0 0.00 0.00 0.00 79 1016.3
20260502040148 55 257 8.0 12.0 0.00 0.00 0.00 79 1016.2
20260502035648 55 271 3.0 12.0 0.00 0.00 0.00 78 1016.0
20260502035147 55 267 3.0 13.0 0.00 0.00 0.00 77 1016.0
20260502034648 55 300 7.0 13.0 0.00 0.00 0.00 77 1015.9
20260502034148 55 281 11.0 12.0 0.00 0.00 0.00 76 1016.0
20260502033147 56 254 5.0 13.0 0.00 0.00 0.00 75 1016.2
20260502032648 56 290 4.0 12.0 0.00 0.00 0.00 75 1016.1
20260502032148 56 280 3.0 14.0 0.00 0.00 0.00 74 1015.8
20260502031647 56 309 4.0 14.0 0.00 0.00 0.00 74 1015.9
20260502031147 56 264 2.0 12.0 0.00 0.00 0.00 74 1015.9
20260502030647 56 215 6.0 13.0 0.00 0.00 0.00 74 1015.7
20260502025147 56 240 4.0 14.0 0.00 0.00 0.00 74 1015.6
20260502024646 57 255 6.0 13.0 0.00 0.00 0.00 73 1015.6
20260502023646 57 252 4.0 14.0 0.00 0.00 0.00 73 1015.5
20260502023146 57 256 14.0 19.0 0.00 0.00 0.00 73 1015.4
20260502022646 56 293 4.0 19.0 0.00 0.00 0.00 73 1015.5
20260502022146 56 258 4.0 16.0 0.00 0.00 0.00 76 1015.4
20260502021646 56 298 10.0 16.0 0.00 0.00 0.00 76 1015.4